Notices

What's New in latest Release from April 7th, 2021:

- Updated Glossary, including Speed of Maximum Gust, and Total Hourly Precipitation

- Updated national and regional climate services offices contacts and prices information

- Addition of station inventory lists for 1981-2010, 1971-2000, and 1961-1990 Normals.

If you haven't already, please take our survey and provide feedback about our website: https://eccc.sondage-survey.ca/f/LanguageSelection.aspx?s=442ca660-fcf1-47c0-95a9-59707d6fd709

Hourly Data Report for April 02, 2021

CORNER BROOK
NEWFOUNDLAND
Current Station Operator: ECCC - MSC

48°56'00.000" N
57°55'00.000" W
151.80 m
8401298
71973
WKB

Download Data

Hourly Data (April 2021)
Hourly Data Report for April 2, 2021
TIME
LST
Temp Definition
°C
Dew Point Definition
°C
Rel Hum Definition
%
Precip. Amount Definition
mm

Wind Dir Definition
10's deg

Wind Spd Definition
km/h
Visibility Definition
km
Stn Press Definition
kPa
Hmdx Definition


Wind Chill Definition


Weather Definition


00:30 7.4 2.7 72 0.0 15 14   99.76     LegendNANA
01:30 7.9 3.9 76 0.0 14 16   99.71     LegendNANA
02:30 7.6 3.6 76 0.0 14 10   99.73     LegendNANA
03:30 7.8 3.3 74 0.0 15 13   99.70     LegendNANA
04:30 8.2 3.1 70 0.0 15 17   99.74     LegendNANA
05:30 8.0 3.2 72 0.0 15 14   99.75     LegendNANA
06:30 8.6 3.8 72 0.0 16 11   99.84     LegendNANA
07:30 8.8 3.7 70 0.0 15 9   99.82     LegendNANA
08:30 9.1 4.2 71 0.0 18 7   99.92     LegendNANA
09:30 8.9 4.3 73 0.0 15 16   99.98     LegendNANA
10:30 9.2 4.7 73 0.0 15 18   100.00     LegendNANA
11:30 8.1 4.8 80 0.6 16 13   100.00     LegendNANA
12:30 9.3 5.1 75 0.0 15 13   100.03     LegendNANA
13:30 8.4 4.9 79 0.7 15 14   100.01     LegendNANA
14:30 7.8 4.3 79 2.0 15 13   100.01     LegendNANA
15:30 9.5 4.6 71 0.0 15 12   100.04     LegendNANA
16:30 10.0 5.1 72 0.0 15 16   100.04     LegendNANA
17:30 9.1 5.0 76 0.0 16 12   100.09     LegendNANA
18:30 8.0 4.1 77 0.0 17 7   100.13     LegendNANA
19:30 7.9 4.5 79 0.0 18 7   100.14     LegendNANA
20:30 8.2 4.7 78 0.0 14 13   100.20     LegendNANA
21:30 8.3 4.5 77 0.0 15 7   100.16     LegendNANA
22:30 8.2 3.4 72 0.0 17 5   100.19     LegendNANA
23:30 8.4 3.0 69 0.0 15 18   100.19     LegendNANA

Notes on Data Quality.

Legend

  • E = Estimated
  • M = Missing
  • NA = Not Available*
  • [empty] = Indicates an unobserved value
Date modified: